History for KNYNEWYO343

Midtown West, New York, NY — Current Conditions
Daily Summary for August 22, 2017
  Current: High: Low: Average:
Temperature: 89.2°F 91.0°F 75.4°F 83.2°F
Dew Point: 72.5°F 76.3°F 70.5°F 73.0°F
Humidity: 58% 91% 52% 75%
Wind Speed: 0.0mph 3.4mph - 0.0mph
Wind Gust: 0.0mph 4.9mph - -
Wind: ESE - - WNW
Pressure: 29.75in 30.07in 29.75in -
Precipitation: 0.00in      
Solar Radiation: 35 watts/m^2      
UV Index: 1.0      
Statistics for the rest of the month
    High: Low: Average:
Temperature:   91.0°F 65.8°F 76.9°F
Dew Point:   78.4°F 47.7°F 64.8°F
Humidity:   98.0% 33.0% 68.6%
Wind Speed:   5.8mph from the ESE - 0.0mph
Wind Gust:   9.8mph from the ENE - -
Wind:   - - SW
Pressure:   30.22in 29.72in -
Precipitation:   3.53in    
KNYNEWYO343 Weather Graph
Tabular Data for August 22, 2017
Time Temp. Heat Index Dew Point Pressure Wind Gust Humidity Rainfall Solar Radiation
00:04 79.9°F - 72.1°F 30.06in 0.0mph 77% 0.00in 0.00 watts/m^2
00:09 79.9°F - 72.1°F 30.06in 0.0mph 77% 0.00in 0.00 watts/m^2
00:14 79.7°F - 72.3°F 30.06in 0.0mph 78% 0.00in 0.00 watts/m^2
00:20 79.5°F - 71.8°F 30.06in 0.0mph 77% 0.00in 0.00 watts/m^2
00:25 79.5°F - 71.8°F 30.06in 0.0mph 77% 0.00in 0.00 watts/m^2
00:30 79.5°F - 71.8°F 30.06in 0.0mph 77% 0.00in 0.00 watts/m^2
00:35 79.3°F - 72.3°F 30.06in 0.0mph 79% 0.00in 0.00 watts/m^2
00:40 79.3°F - 72.0°F 30.06in 0.0mph 78% 0.00in 0.00 watts/m^2
00:45 79.3°F - 72.3°F 30.06in 0.0mph 79% 0.00in 0.00 watts/m^2
00:50 79.3°F - 72.3°F 30.05in 0.0mph 79% 0.00in 0.00 watts/m^2
00:55 79.2°F - 72.9°F 30.05in 0.0mph 81% 0.00in 0.00 watts/m^2
01:00 79.0°F - 72.3°F 30.05in 0.0mph 80% 0.00in 0.00 watts/m^2
01:05 78.8°F - 71.8°F 30.05in 0.0mph 79% 0.00in 0.00 watts/m^2
01:10 78.6°F - 72.0°F 30.05in 0.0mph 80% 0.00in 0.00 watts/m^2
01:15 78.6°F - 72.0°F 30.05in 0.0mph 80% 0.00in 0.00 watts/m^2
01:20 78.4°F - 72.1°F 30.05in 0.0mph 81% 0.00in 0.00 watts/m^2
01:25 78.4°F - 71.4°F 30.05in 0.0mph 79% 0.00in 0.00 watts/m^2
01:30 78.4°F - 71.4°F 30.04in 0.0mph 79% 0.00in 0.00 watts/m^2
01:36 78.4°F - 71.8°F 30.04in 0.0mph 80% 0.00in 0.00 watts/m^2
01:41 78.4°F - 71.8°F 30.04in 0.0mph 80% 0.00in 0.00 watts/m^2
01:46 78.4°F - 72.5°F 30.04in 0.0mph 82% 0.00in 0.00 watts/m^2
01:51 78.4°F - 72.1°F 30.03in 0.0mph 81% 0.00in 0.00 watts/m^2
01:56 78.4°F - 72.5°F 30.03in 0.0mph 82% 0.00in 0.00 watts/m^2
02:01 78.1°F - 72.1°F 30.03in 0.0mph 82% 0.00in 0.00 watts/m^2
02:06 78.1°F - 72.1°F 30.03in 0.0mph 82% 0.00in 0.00 watts/m^2
02:07 78.1°F - 72.1°F 30.03in 0.0mph 82% 0.00in 0.00 watts/m^2
02:12 77.7°F - 72.5°F 30.02in 0.0mph 84% 0.00in 0.00 watts/m^2
02:17 77.7°F - 72.1°F 30.03in 0.0mph 83% 0.00in 0.00 watts/m^2
02:22 77.5°F - 72.0°F 30.02in 0.0mph 83% 0.00in 0.00 watts/m^2
02:27 77.5°F - 72.0°F 30.02in 0.0mph 83% 0.00in 0.00 watts/m^2
02:32 77.4°F - 72.1°F 30.03in 0.0mph 84% 0.00in 0.00 watts/m^2
02:37 77.4°F - 72.1°F 30.02in 0.0mph 84% 0.00in 0.00 watts/m^2
02:43 77.4°F - 72.1°F 30.01in 0.0mph 84% 0.00in 0.00 watts/m^2
02:48 77.2°F - 72.0°F 30.02in 0.0mph 84% 0.00in 0.00 watts/m^2
02:53 77.2°F - 72.3°F 30.02in 0.0mph 85% 0.00in 0.00 watts/m^2
02:58 77.2°F - 71.6°F 30.02in 0.0mph 83% 0.00in 0.00 watts/m^2
03:03 77.4°F - 71.8°F 30.02in 0.0mph 83% 0.00in 0.00 watts/m^2
03:08 77.5°F - 72.3°F 30.02in 0.0mph 84% 0.00in 0.00 watts/m^2
03:13 77.5°F - 72.3°F 30.02in 0.0mph 84% 0.00in 0.00 watts/m^2
03:18 77.4°F - 72.5°F 30.01in 0.0mph 85% 0.00in 0.00 watts/m^2
03:23 77.4°F - 72.9°F 30.01in 0.0mph 86% 0.00in 0.00 watts/m^2
03:28 77.4°F - 72.9°F 30.00in 0.0mph 86% 0.00in 0.00 watts/m^2
03:33 77.2°F - 72.7°F 30.01in 0.0mph 86% 0.00in 0.00 watts/m^2
03:38 77.0°F - 72.9°F 30.01in 0.0mph 87% 0.00in 0.00 watts/m^2
03:43 77.0°F - 72.1°F 30.01in 0.0mph 85% 0.00in 0.00 watts/m^2
03:48 77.0°F - 72.5°F 30.00in 0.0mph 86% 0.00in 0.00 watts/m^2
03:53 77.0°F - 72.9°F 30.00in 0.0mph 87% 0.00in 0.00 watts/m^2
03:58 77.0°F - 72.9°F 30.01in 0.0mph 87% 0.00in 0.00 watts/m^2
04:04 77.0°F - 73.2°F 30.00in 0.0mph 88% 0.00in 0.00 watts/m^2
04:09 77.0°F - 73.2°F 30.00in 0.0mph 88% 0.00in 0.00 watts/m^2
04:14 77.0°F - 72.9°F 30.00in 0.0mph 87% 0.00in 0.00 watts/m^2
04:19 77.0°F - 73.2°F 30.00in 0.0mph 88% 0.00in 0.00 watts/m^2
04:24 77.0°F - 73.2°F 30.00in 0.0mph 88% 0.00in 0.00 watts/m^2
04:29 77.0°F - 72.9°F 30.00in 0.0mph 87% 0.00in 0.00 watts/m^2
04:34 76.8°F - 73.4°F 30.00in 0.0mph 89% 0.00in 0.00 watts/m^2
04:39 76.8°F - 73.8°F 30.00in 0.0mph 90% 0.00in 0.00 watts/m^2
04:44 76.6°F - 73.6°F 29.99in 0.0mph 90% 0.00in 0.00 watts/m^2
04:49 76.3°F - 73.6°F 30.00in 0.0mph 91% 0.00in 0.00 watts/m^2
04:54 75.9°F - 73.2°F 30.00in 0.0mph 91% 0.00in 0.00 watts/m^2
04:59 75.9°F - 73.2°F 29.99in 0.0mph 91% 0.00in 0.00 watts/m^2
05:04 75.6°F - 72.9°F 29.99in 0.0mph 91% 0.00in 0.00 watts/m^2
05:09 75.4°F - 72.7°F 29.99in 0.0mph 91% 0.00in 0.00 watts/m^2
05:15 75.4°F - 72.7°F 30.00in 0.0mph 91% 0.00in 0.00 watts/m^2
05:20 75.6°F - 72.5°F 29.99in 0.0mph 90% 0.00in 0.00 watts/m^2
05:25 75.7°F - 72.7°F 29.99in 0.0mph 90% 0.00in 0.00 watts/m^2
05:30 75.6°F - 72.5°F 29.99in 0.0mph 90% 0.00in 0.00 watts/m^2
05:35 75.7°F - 72.7°F 30.00in 0.0mph 90% 0.00in 0.00 watts/m^2
05:40 75.9°F - 72.9°F 29.99in 0.0mph 90% 0.00in 0.00 watts/m^2
05:45 75.9°F - 73.2°F 29.98in 0.0mph 91% 0.00in 0.00 watts/m^2
05:50 75.9°F - 72.9°F 29.99in 0.0mph 90% 0.00in 0.00 watts/m^2
05:55 76.1°F - 73.4°F 29.99in 0.0mph 91% 0.00in 0.00 watts/m^2
06:00 76.3°F - 73.6°F 29.99in 0.0mph 91% 0.00in 0.00 watts/m^2
06:05 76.3°F - 73.2°F 29.99in 0.0mph 90% 0.00in 0.00 watts/m^2
06:11 76.5°F - 73.4°F 29.99in 0.0mph 90% 0.00in 0.00 watts/m^2
06:16 76.6°F - 73.6°F 30.00in 0.0mph 90% 0.00in 0.00 watts/m^2
06:21 76.6°F - 73.9°F 29.99in 0.0mph 91% 0.00in 0.99 watts/m^2
06:26 76.6°F - 73.2°F 29.99in 0.0mph 89% 0.00in 3.30 watts/m^2
06:31 76.6°F - 73.6°F 30.00in 0.0mph 90% 0.00in 5.12 watts/m^2
06:36 76.6°F - 73.9°F 30.00in 0.0mph 91% 0.00in 7.67 watts/m^2
06:41 76.5°F - 73.0°F 30.00in 0.0mph 89% 0.00in 10.53 watts/m^2
06:46 76.5°F - 72.3°F 29.99in 0.0mph 87% 0.00in 13.27 watts/m^2
06:51 76.6°F - 73.2°F 29.99in 0.0mph 89% 0.00in 16.74 watts/m^2
06:56 76.6°F - 72.9°F 29.99in 0.0mph 88% 0.00in 19.96 watts/m^2
07:01 76.6°F - 73.2°F 29.99in 0.0mph 89% 0.00in 23.72 watts/m^2
07:06 76.8°F - 73.4°F 29.99in 0.0mph 89% 0.00in 28.42 watts/m^2
07:11 76.8°F - 73.4°F 29.99in 0.0mph 89% 0.00in 30.12 watts/m^2
07:16 76.8°F - 73.0°F 29.99in 0.0mph 88% 0.00in 35.56 watts/m^2
07:21 76.8°F - 73.0°F 29.99in 0.0mph 88% 0.00in 33.76 watts/m^2
07:26 76.8°F - 73.0°F 29.99in 0.0mph 88% 0.00in 36.62 watts/m^2
07:32 77.0°F - 73.2°F 29.98in 0.0mph 88% 0.00in 36.25 watts/m^2
07:37 77.2°F - 73.0°F 29.99in 0.0mph 87% 0.00in 40.85 watts/m^2
07:42 77.4°F - 73.2°F 29.98in 0.0mph 87% 0.00in 36.46 watts/m^2
07:47 77.4°F - 73.2°F 29.99in 0.0mph 87% 0.00in 38.37 watts/m^2
07:52 77.5°F - 73.0°F 29.99in 0.0mph 86% 0.00in 46.24 watts/m^2
07:57 77.7°F - 73.2°F 29.99in 0.0mph 86% 0.00in 46.46 watts/m^2
08:02 77.7°F - 73.6°F 29.99in 0.0mph 87% 0.00in 47.14 watts/m^2
08:07 77.7°F - 73.2°F 29.99in 0.0mph 86% 0.00in 55.66 watts/m^2
08:12 77.7°F - 73.2°F 29.98in 0.0mph 86% 0.00in 58.30 watts/m^2
08:17 77.9°F - 73.8°F 29.99in 0.0mph 87% 0.00in 57.35 watts/m^2
08:23 77.9°F - 73.4°F 29.98in 0.0mph 86% 0.00in 74.17 watts/m^2
08:28 78.1°F - 72.5°F 29.98in 0.0mph 83% 0.00in 65.55 watts/m^2
08:33 78.4°F - 73.2°F 29.98in 0.0mph 84% 0.00in 67.93 watts/m^2
08:38 78.6°F - 74.1°F 29.98in 0.0mph 86% 0.00in 72.37 watts/m^2
08:43 78.6°F - 73.8°F 29.98in 2.5mph 85% 0.00in 81.54 watts/m^2
08:48 78.8°F - 73.6°F 29.98in 0.0mph 84% 0.00in 79.00 watts/m^2
08:53 79.0°F - 73.8°F 29.98in 0.0mph 84% 0.00in 89.23 watts/m^2
08:58 79.0°F - 73.8°F 29.98in 0.0mph 84% 0.00in 87.79 watts/m^2
09:03 79.2°F - 73.6°F 29.98in 0.0mph 83% 0.00in 92.83 watts/m^2
09:08 79.3°F - 73.8°F 29.97in 0.0mph 83% 0.00in 85.29 watts/m^2
09:13 79.5°F - 74.3°F 29.97in 0.0mph 84% 0.00in 102.95 watts/m^2
09:18 79.5°F - 73.9°F 29.97in 0.0mph 83% 0.00in 103.89 watts/m^2
09:24 79.7°F - 74.1°F 29.98in 0.0mph 83% 0.00in 109.54 watts/m^2
09:29 79.7°F - 73.8°F 29.97in 0.0mph 82% 0.00in 101.13 watts/m^2
09:34 79.9°F - 72.5°F 29.97in 0.0mph 78% 0.00in 95.52 watts/m^2
09:39 80.2°F 84.5°F 73.2°F 29.97in 0.0mph 79% 0.00in 97.72 watts/m^2
09:44 80.4°F 84.9°F 73.4°F 29.97in 0.0mph 79% 0.00in 105.98 watts/m^2
09:49 80.6°F 85.2°F 73.2°F 29.97in 0.0mph 78% 0.00in 106.24 watts/m^2
09:54 80.8°F 85.6°F 73.4°F 29.97in 0.0mph 78% 0.00in 116.55 watts/m^2
09:59 81.0°F 86.1°F 73.6°F 29.97in 0.0mph 78% 0.00in 121.70 watts/m^2
10:04 81.0°F 86.1°F 73.6°F 29.96in 0.0mph 78% 0.00in 122.04 watts/m^2
10:09 80.8°F 85.6°F 73.4°F 29.96in 0.0mph 78% 0.00in 102.23 watts/m^2
10:14 80.8°F 85.6°F 73.4°F 29.97in 0.0mph 78% 0.00in 127.00 watts/m^2
10:16 80.8°F 85.8°F 73.8°F 29.96in 0.0mph 79% 0.00in 129.09 watts/m^2
10:21 80.8°F 85.6°F 73.4°F 29.96in 0.0mph 78% 0.00in 119.77 watts/m^2
10:26 80.8°F 85.6°F 73.4°F 29.96in 0.0mph 78% 0.00in 126.17 watts/m^2
10:31 81.0°F 85.9°F 73.0°F 29.96in 0.0mph 77% 0.00in 141.63 watts/m^2
10:36 81.0°F 85.9°F 73.0°F 29.96in 0.0mph 77% 0.00in 141.93 watts/m^2
10:41 81.0°F 85.9°F 73.0°F 29.96in 0.0mph 77% 0.00in 119.46 watts/m^2
10:46 81.1°F 85.9°F 72.9°F 29.96in 0.0mph 76% 0.00in 120.49 watts/m^2
10:51 81.3°F 86.3°F 73.0°F 29.96in 0.0mph 76% 0.00in 126.43 watts/m^2
10:56 81.5°F 86.7°F 73.2°F 29.95in 0.0mph 76% 0.00in 131.32 watts/m^2
10:58 81.5°F 86.3°F 72.5°F 29.95in 0.0mph 74% 0.00in 121.85 watts/m^2
11:03 81.7°F 86.7°F 72.7°F 29.95in 0.0mph 74% 0.00in 114.16 watts/m^2
11:08 81.7°F 87.2°F 73.4°F 29.95in 0.0mph 76% 0.00in 127.68 watts/m^2
11:13 81.7°F 87.4°F 73.8°F 29.95in 0.0mph 77% 0.00in 117.72 watts/m^2
11:19 81.7°F 86.9°F 73.0°F 29.95in 0.0mph 75% 0.00in 94.42 watts/m^2
11:24 81.7°F 87.4°F 73.8°F 29.95in 0.0mph 77% 0.00in 98.97 watts/m^2
11:29 81.7°F 86.9°F 73.0°F 29.94in 0.0mph 75% 0.00in 97.49 watts/m^2
11:34 81.9°F 87.4°F 73.2°F 29.94in 0.0mph 75% 0.00in 97.04 watts/m^2
11:39 82.0°F 86.9°F 72.1°F 29.94in 0.0mph 72% 0.00in 93.06 watts/m^2
11:44 82.6°F 88.4°F 73.0°F 29.94in 0.0mph 73% 0.00in 91.13 watts/m^2
11:49 83.1°F 88.6°F 72.3°F 29.94in 0.0mph 70% 0.00in 91.43 watts/m^2
11:55 83.7°F 90.1°F 73.4°F 29.93in 0.0mph 71% 0.00in 82.90 watts/m^2
12:00 84.2°F 91.2°F 73.8°F 29.92in 0.0mph 71% 0.00in 81.01 watts/m^2
12:05 84.7°F 91.7°F 73.6°F 29.93in 2.5mph 69% 0.00in 82.45 watts/m^2
12:10 85.1°F 92.6°F 73.8°F 29.92in 0.0mph 69% 0.00in 80.71 watts/m^2
12:15 85.5°F 93.5°F 74.1°F 29.92in 0.0mph 69% 0.00in 80.75 watts/m^2
12:20 85.6°F 92.5°F 73.0°F 29.92in 2.5mph 66% 0.00in 78.96 watts/m^2
12:25 85.8°F 94.2°F 74.5°F 29.92in 0.0mph 69% 0.00in 79.42 watts/m^2
12:30 86.0°F 93.4°F 73.4°F 29.92in 0.0mph 66% 0.00in 77.76 watts/m^2
12:35 86.2°F 94.3°F 73.9°F 29.92in 0.0mph 67% 0.00in 73.69 watts/m^2
12:40 86.5°F 94.5°F 73.9°F 29.92in 0.0mph 66% 0.00in 72.84 watts/m^2
12:45 86.7°F 94.5°F 73.6°F 29.91in 0.0mph 65% 0.00in 76.18 watts/m^2
12:50 86.7°F 95.0°F 74.1°F 29.91in 0.0mph 66% 0.00in 74.75 watts/m^2
12:55 86.9°F 95.9°F 74.7°F 29.91in 0.0mph 67% 0.00in 77.66 watts/m^2
13:00 86.9°F 95.0°F 73.8°F 29.91in 0.0mph 65% 0.00in 73.48 watts/m^2
13:05 87.3°F 95.9°F 74.1°F 29.90in 0.0mph 65% 0.00in 81.43 watts/m^2
13:11 87.6°F 95.7°F 73.6°F 29.90in 0.0mph 63% 0.00in 92.03 watts/m^2
13:16 87.8°F 98.1°F 75.6°F 29.90in 0.0mph 67% 0.00in 102.26 watts/m^2
13:21 88.2°F 96.5°F 73.6°F 29.90in 2.5mph 62% 0.00in 90.18 watts/m^2
13:26 88.5°F 99.9°F 76.3°F 29.90in 0.0mph 67% 0.00in 93.63 watts/m^2
13:31 88.7°F 99.3°F 75.6°F 29.90in 0.0mph 65% 0.00in 77.07 watts/m^2
13:36 88.7°F 99.3°F 75.6°F 29.90in 0.0mph 65% 0.00in 72.90 watts/m^2
13:41 88.7°F 97.2°F 73.6°F 29.90in 0.0mph 61% 0.00in 69.83 watts/m^2
13:46 88.9°F 98.7°F 74.7°F 29.89in 0.0mph 63% 0.00in 72.69 watts/m^2
13:51 88.9°F 99.2°F 75.2°F 29.89in 0.0mph 64% 0.00in 81.54 watts/m^2
13:56 89.2°F 98.3°F 74.1°F 29.88in 0.0mph 61% 0.00in 80.71 watts/m^2
14:01 89.4°F 98.8°F 74.3°F 29.88in 0.0mph 61% 0.00in 72.16 watts/m^2
14:07 89.6°F 99.8°F 74.8°F 29.88in 2.5mph 62% 0.00in 67.66 watts/m^2
14:12 89.6°F 99.3°F 74.5°F 29.88in 0.0mph 61% 0.00in 64.91 watts/m^2
14:17 89.6°F 98.7°F 73.9°F 29.87in 2.5mph 60% 0.00in 64.28 watts/m^2
14:19 89.8°F 98.7°F 73.6°F 29.87in 0.0mph 59% 0.00in 64.49 watts/m^2
14:24 89.8°F 99.8°F 74.7°F 29.87in 2.5mph 61% 0.00in 62.90 watts/m^2
14:28 89.8°F 98.7°F 73.6°F 29.86in 2.5mph 59% 0.00in 65.39 watts/m^2
14:34 89.8°F 99.2°F 74.1°F 29.86in 0.0mph 60% 0.00in 67.40 watts/m^2
14:39 90.0°F 99.7°F 74.3°F 29.86in 0.0mph 60% 0.00in 67.87 watts/m^2
14:44 90.0°F 100.2°F 74.8°F 29.85in 0.0mph 61% 0.00in 70.68 watts/m^2
14:49 90.0°F 99.7°F 74.3°F 29.85in 0.0mph 60% 0.00in 89.12 watts/m^2
14:54 90.0°F 100.2°F 74.8°F 29.84in 0.0mph 61% 0.00in 72.21 watts/m^2
14:59 89.8°F 99.2°F 74.1°F 29.84in 0.0mph 60% 0.00in 77.97 watts/m^2
15:04 90.0°F 98.6°F 73.2°F 29.83in 0.0mph 58% 0.00in 66.55 watts/m^2
15:09 90.1°F 99.4°F 73.9°F 29.84in 0.0mph 59% 0.00in 68.61 watts/m^2
15:14 90.1°F 99.4°F 73.9°F 29.82in 0.0mph 59% 0.00in 93.32 watts/m^2
15:19 90.3°F 100.4°F 74.7°F 29.82in 0.0mph 60% 0.00in 69.19 watts/m^2
15:24 90.5°F 100.3°F 74.3°F 29.82in 0.0mph 59% 0.00in 50.74 watts/m^2
15:27 90.5°F 100.3°F 74.3°F 29.82in 0.0mph 59% 0.00in 62.32 watts/m^2
15:32 90.7°F 100.2°F 73.9°F 29.81in 0.0mph 58% 0.00in 58.30 watts/m^2
15:37 90.7°F 100.2°F 73.9°F 29.81in 0.0mph 58% 0.00in 64.12 watts/m^2
15:42 90.9°F 98.9°F 72.5°F 29.81in 0.0mph 55% 0.00in 81.54 watts/m^2
15:47 90.9°F 98.9°F 72.5°F 29.80in 0.0mph 55% 0.00in 67.08 watts/m^2
15:48 91.0°F 99.7°F 73.2°F 29.80in 0.0mph 56% 0.00in 57.35 watts/m^2
15:53 91.0°F 99.2°F 72.7°F 29.80in 0.0mph 55% 0.00in 85.71 watts/m^2
15:59 91.0°F 99.2°F 72.7°F 29.80in 0.0mph 55% 0.00in 67.13 watts/m^2
16:04 91.0°F 99.2°F 72.7°F 29.79in 0.0mph 55% 0.00in 69.04 watts/m^2
16:09 91.0°F 98.1°F 71.6°F 29.79in 0.0mph 53% 0.00in 84.08 watts/m^2
16:14 90.9°F 97.9°F 71.4°F 29.79in 0.0mph 53% 0.00in 72.05 watts/m^2
16:19 90.9°F 98.4°F 72.0°F 29.80in 0.0mph 54% 0.00in 80.33 watts/m^2
16:21 90.7°F 98.0°F 71.8°F 29.79in 0.0mph 54% 0.00in 83.59 watts/m^2
16:26 90.7°F 98.0°F 71.8°F 29.79in 2.5mph 54% 0.00in 73.27 watts/m^2
16:31 90.5°F 97.5°F 71.6°F 29.78in 0.0mph 54% 0.00in 88.02 watts/m^2
16:36 90.5°F 97.5°F 71.6°F 29.79in 0.0mph 54% 0.00in 58.35 watts/m^2
16:42 90.5°F 97.5°F 71.6°F 29.78in 0.0mph 54% 0.00in 56.24 watts/m^2
16:47 90.5°F 98.1°F 72.1°F 29.78in 0.0mph 55% 0.00in 74.80 watts/m^2
16:52 90.5°F 96.5°F 70.5°F 29.78in 0.0mph 52% 0.00in 47.83 watts/m^2
16:57 90.5°F 97.0°F 71.1°F 29.77in 0.0mph 53% 0.00in 80.48 watts/m^2
17:02 90.5°F 97.0°F 71.1°F 29.78in 0.0mph 53% 0.00in 83.78 watts/m^2
17:07 90.5°F 97.0°F 71.1°F 29.78in 0.0mph 53% 0.00in 76.33 watts/m^2
17:12 90.5°F 96.5°F 70.5°F 29.78in 0.0mph 52% 0.00in 71.52 watts/m^2
17:17 90.5°F 96.5°F 70.5°F 29.78in 0.0mph 52% 0.00in 47.67 watts/m^2
17:23 90.5°F 97.0°F 71.1°F 29.77in 0.0mph 53% 0.00in 63.75 watts/m^2
17:28 90.5°F 97.0°F 71.1°F 29.77in 0.0mph 53% 0.00in 58.83 watts/m^2
17:33 90.5°F 97.0°F 71.1°F 29.77in 0.0mph 53% 0.00in 40.32 watts/m^2
17:38 90.5°F 97.0°F 71.1°F 29.77in 0.0mph 53% 0.00in 60.21 watts/m^2
17:43 90.3°F 97.1°F 71.4°F 29.76in 0.0mph 54% 0.00in 40.27 watts/m^2
17:48 90.3°F 97.6°F 72.0°F 29.77in 0.0mph 55% 0.00in 50.05 watts/m^2
17:53 90.1°F 97.7°F 72.3°F 29.75in 0.0mph 56% 0.00in 45.19 watts/m^2
17:58 90.1°F 97.7°F 72.3°F 29.76in 0.0mph 56% 0.00in 37.41 watts/m^2
18:03 90.0°F 98.0°F 72.7°F 29.75in 0.0mph 57% 0.00in 33.82 watts/m^2
18:08 89.8°F 97.6°F 72.5°F 29.75in 0.0mph 57% 0.00in 47.30 watts/m^2
18:13 89.6°F 97.2°F 72.5°F 29.75in 0.0mph 57% 0.00in 42.65 watts/m^2
18:19 89.4°F 97.2°F 72.7°F 29.75in 0.0mph 58% 0.00in 38.10 watts/m^2
18:24 89.4°F 97.2°F 72.7°F 29.75in 0.0mph 58% 0.00in 38.68 watts/m^2
Comma Delimited File
Powered by Weather Underground, Inc.